Year,Month,Day,Hour,Minute,Value (Times are PST for windgust in km/hr)
2016,03,08,00,13,3.20
2016,03,08,00,14,3.20
2016,03,08,00,15,3.20
2016,03,08,00,16,1.60
2016,03,08,00,17,1.60
2016,03,08,00,18,1.60
2016,03,08,00,19,1.60
2016,03,08,00,20,3.20
2016,03,08,00,21,3.20
2016,03,08,00,22,1.60
2016,03,08,00,36,1.60
2016,03,08,00,37,1.60
2016,03,08,00,38,1.60
2016,03,08,00,39,1.60
2016,03,08,00,40,3.20
2016,03,08,00,42,3.20
2016,03,08,00,43,3.20
2016,03,08,00,44,1.60
2016,03,08,00,45,1.60
2016,03,08,00,51,1.60
2016,03,08,00,52,1.60
2016,03,08,00,53,4.80
2016,03,08,00,54,3.20
2016,03,08,00,55,1.60
2016,03,08,01,03,1.60
2016,03,08,01,04,1.60
2016,03,08,01,05,3.20
2016,03,08,01,06,1.60
2016,03,08,01,07,3.20
2016,03,08,01,08,3.20
2016,03,08,01,09,3.20
2016,03,08,01,10,4.80
2016,03,08,01,11,4.80
2016,03,08,01,12,4.80
2016,03,08,01,13,3.20
2016,03,08,01,14,3.20
2016,03,08,01,15,4.80
2016,03,08,01,16,3.20
2016,03,08,01,17,3.20
2016,03,08,01,18,1.60
2016,03,08,01,19,3.20
2016,03,08,01,20,3.20
2016,03,08,01,21,4.80
2016,03,08,01,22,4.80
2016,03,08,01,23,3.20
2016,03,08,01,24,3.20
2016,03,08,01,25,1.60
2016,03,08,01,26,1.60
2016,03,08,01,31,1.60
2016,03,08,01,32,1.60
2016,03,08,01,33,3.20
2016,03,08,01,34,3.20
2016,03,08,01,35,3.20
2016,03,08,01,36,4.80
2016,03,08,01,37,4.80
2016,03,08,01,38,1.60
2016,03,08,01,39,3.20
2016,03,08,01,40,1.60
2016,03,08,01,41,1.60
2016,03,08,01,42,3.20
2016,03,08,01,43,1.60
2016,03,08,01,44,4.80
2016,03,08,01,45,3.20
2016,03,08,01,46,4.80
2016,03,08,01,47,3.20
2016,03,08,01,48,1.60
2016,03,08,01,49,1.60
2016,03,08,01,50,1.60
2016,03,08,01,55,1.60
2016,03,08,01,56,1.60
2016,03,08,01,59,1.60
2016,03,08,02,00,1.60
2016,03,08,02,01,1.60
2016,03,08,02,03,3.20
2016,03,08,02,06,1.60
2016,03,08,02,09,1.60
2016,03,08,02,10,3.20
2016,03,08,02,11,1.60
2016,03,08,02,13,1.60
2016,03,08,02,14,1.60
2016,03,08,02,16,3.20
2016,03,08,02,17,3.20
2016,03,08,02,18,3.20
2016,03,08,02,19,3.20
2016,03,08,02,20,3.20
2016,03,08,02,21,4.80
2016,03,08,02,22,3.20
2016,03,08,02,23,3.20
2016,03,08,02,24,3.20
2016,03,08,02,25,1.60
2016,03,08,02,26,3.20
2016,03,08,02,27,3.20
2016,03,08,02,28,3.20
2016,03,08,02,29,3.20
2016,03,08,02,30,3.20
2016,03,08,02,31,4.80
2016,03,08,02,32,4.80
2016,03,08,02,33,4.80
2016,03,08,02,34,1.60
2016,03,08,02,36,1.60
2016,03,08,02,37,1.60
2016,03,08,02,39,3.20
2016,03,08,02,43,3.20
2016,03,08,02,44,1.60
2016,03,08,03,04,1.60
2016,03,08,03,05,3.20
2016,03,08,03,06,1.60
2016,03,08,03,07,1.60
2016,03,08,03,08,1.60
2016,03,08,03,09,3.20
2016,03,08,03,10,3.20
2016,03,08,03,11,1.60
2016,03,08,03,12,3.20
2016,03,08,03,13,3.20
2016,03,08,03,14,3.20
2016,03,08,03,15,4.80
2016,03,08,03,16,3.20
2016,03,08,03,17,3.20
2016,03,08,03,18,1.60
2016,03,08,03,19,4.80
2016,03,08,03,20,3.20
2016,03,08,03,21,4.80
2016,03,08,03,22,3.20
2016,03,08,03,23,3.20
2016,03,08,03,24,3.20
2016,03,08,03,25,3.20
2016,03,08,03,26,3.20
2016,03,08,03,27,3.20
2016,03,08,03,28,3.20
2016,03,08,03,29,3.20
2016,03,08,03,30,4.80
2016,03,08,03,31,8.10
2016,03,08,03,32,4.80
2016,03,08,03,33,8.10
2016,03,08,03,34,6.40
2016,03,08,03,35,8.10
2016,03,08,03,36,4.80
2016,03,08,03,37,6.40
2016,03,08,03,38,3.20
2016,03,08,03,39,3.20
2016,03,08,03,40,4.80
2016,03,08,03,41,6.40
2016,03,08,03,42,4.80
2016,03,08,03,43,3.20
2016,03,08,03,44,3.20
2016,03,08,03,45,1.60
2016,03,08,03,46,1.60
2016,03,08,03,48,1.60
2016,03,08,03,49,1.60
2016,03,08,03,51,1.60
2016,03,08,03,59,1.60
2016,03,08,04,04,1.60
2016,03,08,04,05,1.60
2016,03,08,04,06,3.20
2016,03,08,04,07,3.20
2016,03,08,04,08,1.60
2016,03,08,04,09,1.60
2016,03,08,04,10,1.60
2016,03,08,04,11,1.60
2016,03,08,04,16,3.20
2016,03,08,04,17,3.20
2016,03,08,04,18,1.60
2016,03,08,04,19,1.60
2016,03,08,04,21,1.60
2016,03,08,04,22,3.20
2016,03,08,04,23,3.20
2016,03,08,04,24,3.20
2016,03,08,04,25,1.60
2016,03,08,04,26,1.60
2016,03,08,04,27,3.20
2016,03,08,04,28,3.20
2016,03,08,04,29,4.80
2016,03,08,04,30,3.20
2016,03,08,04,31,3.20
2016,03,08,04,32,4.80
2016,03,08,04,33,4.80
2016,03,08,04,34,4.80
2016,03,08,04,35,4.80
2016,03,08,04,36,3.20
2016,03,08,04,37,8.10
2016,03,08,04,38,3.20
2016,03,08,04,39,8.10
2016,03,08,04,40,4.80
2016,03,08,04,41,4.80
2016,03,08,04,42,3.20
2016,03,08,04,43,9.60
2016,03,08,04,44,3.20
2016,03,08,04,45,4.80
2016,03,08,04,46,3.20
2016,03,08,04,47,3.20
2016,03,08,04,48,4.80
2016,03,08,04,49,1.60
2016,03,08,04,50,4.80
2016,03,08,04,51,3.20
2016,03,08,04,52,4.80
2016,03,08,04,53,3.20
2016,03,08,04,54,3.20
2016,03,08,04,55,4.80
2016,03,08,04,56,1.60
2016,03,08,04,58,1.60
2016,03,08,04,59,4.80
2016,03,08,05,00,3.20
2016,03,08,05,01,1.60
2016,03,08,05,02,1.60
2016,03,08,05,03,4.80
2016,03,08,05,04,4.80
2016,03,08,05,05,4.80
2016,03,08,05,06,4.80
2016,03,08,05,07,4.80
2016,03,08,05,08,4.80
2016,03,08,05,09,4.80
2016,03,08,05,10,3.20
2016,03,08,05,11,3.20
2016,03,08,05,12,4.80
2016,03,08,05,13,4.80
2016,03,08,05,14,3.20
2016,03,08,05,15,3.20
2016,03,08,05,16,6.40
2016,03,08,05,17,4.80
2016,03,08,05,18,8.10
2016,03,08,05,19,4.80
2016,03,08,05,20,4.80
2016,03,08,05,21,6.40
2016,03,08,05,22,6.40
2016,03,08,05,23,3.20
2016,03,08,05,24,6.40
2016,03,08,05,25,4.80
2016,03,08,05,26,3.20
2016,03,08,05,27,8.10
2016,03,08,05,28,9.60
2016,03,08,05,29,4.80
2016,03,08,05,30,4.80
2016,03,08,05,31,1.60
2016,03,08,05,32,3.20
2016,03,08,05,33,3.20
2016,03,08,05,34,3.20
2016,03,08,05,35,3.20
2016,03,08,05,36,1.60
2016,03,08,05,37,3.20
2016,03,08,05,38,3.20
2016,03,08,05,39,3.20
2016,03,08,05,40,3.20
2016,03,08,05,41,1.60
2016,03,08,05,42,1.60
2016,03,08,05,43,1.60
2016,03,08,05,44,4.80
2016,03,08,05,45,4.80
2016,03,08,05,46,1.60
2016,03,08,05,47,1.60
2016,03,08,05,48,1.60
2016,03,08,05,49,11.30
2016,03,08,05,50,8.10
2016,03,08,05,51,6.40
2016,03,08,05,52,8.10
2016,03,08,05,53,11.30
2016,03,08,05,54,12.90
2016,03,08,05,55,6.40
2016,03,08,05,56,8.10
2016,03,08,05,57,11.30
2016,03,08,05,58,8.10
2016,03,08,05,59,11.30
2016,03,08,06,00,9.60
2016,03,08,06,01,4.80
2016,03,08,06,02,3.20
2016,03,08,06,03,3.20
2016,03,08,06,04,3.20
2016,03,08,06,05,3.20
2016,03,08,06,06,4.80
2016,03,08,06,07,6.40
2016,03,08,06,08,4.80
2016,03,08,06,09,4.80
2016,03,08,06,10,6.40
2016,03,08,06,11,9.60
2016,03,08,06,12,9.60
2016,03,08,06,13,3.20
2016,03,08,06,14,4.80
2016,03,08,06,15,3.20
2016,03,08,06,16,4.80
2016,03,08,06,17,4.80
2016,03,08,06,18,9.60
2016,03,08,06,19,4.80
2016,03,08,06,20,4.80
2016,03,08,06,21,8.10
2016,03,08,06,22,4.80
2016,03,08,06,23,3.20
2016,03,08,06,24,6.40
2016,03,08,06,25,8.10
2016,03,08,06,26,6.40
2016,03,08,06,27,4.80
2016,03,08,06,28,4.80
2016,03,08,06,29,9.60
2016,03,08,06,30,9.60
2016,03,08,06,31,6.40
2016,03,08,06,32,9.60
2016,03,08,06,33,6.40
2016,03,08,06,34,4.80
2016,03,08,06,35,4.80
2016,03,08,06,36,4.80
2016,03,08,06,37,6.40
2016,03,08,06,38,6.40
2016,03,08,06,39,4.80
2016,03,08,06,40,4.80
2016,03,08,06,41,6.40
2016,03,08,06,42,4.80
2016,03,08,06,43,8.10
2016,03,08,06,44,4.80
2016,03,08,06,45,4.80
2016,03,08,06,46,9.60
2016,03,08,06,47,4.80
2016,03,08,06,48,6.40
2016,03,08,06,49,12.90
2016,03,08,06,50,8.10
2016,03,08,06,51,6.40
2016,03,08,06,52,4.80
2016,03,08,06,53,1.60
2016,03,08,06,54,8.10
2016,03,08,06,55,14.50
2016,03,08,06,56,12.90
2016,03,08,06,57,4.80
2016,03,08,06,58,9.60
2016,03,08,06,59,4.80
2016,03,08,07,00,9.60
2016,03,08,07,01,6.40
2016,03,08,07,02,16.10
2016,03,08,07,03,11.30
2016,03,08,07,04,12.90
2016,03,08,07,05,14.50
2016,03,08,07,06,11.30
2016,03,08,07,07,4.80
2016,03,08,07,08,9.60
2016,03,08,07,09,17.70
2016,03,08,07,10,17.70
2016,03,08,07,11,12.90
2016,03,08,07,12,4.80
2016,03,08,07,13,3.20
2016,03,08,07,14,3.20
2016,03,08,07,15,16.10
2016,03,08,07,16,12.90
2016,03,08,07,17,11.30
2016,03,08,07,18,6.40
2016,03,08,07,19,12.90
2016,03,08,07,20,12.90
2016,03,08,07,21,4.80
2016,03,08,07,22,11.30
2016,03,08,07,23,6.40
2016,03,08,07,24,4.80
2016,03,08,07,25,11.30
2016,03,08,07,26,19.30
2016,03,08,07,27,11.30
2016,03,08,07,28,11.30
2016,03,08,07,29,1.60
2016,03,08,07,30,9.60
2016,03,08,07,31,12.90
2016,03,08,07,32,9.60
2016,03,08,07,33,16.10
2016,03,08,07,34,14.50
2016,03,08,07,35,9.60
2016,03,08,07,36,8.10
2016,03,08,07,37,6.40
2016,03,08,07,38,11.30
2016,03,08,07,39,4.80
2016,03,08,07,40,4.80
2016,03,08,07,41,12.90
2016,03,08,07,42,14.50
2016,03,08,07,43,9.60
2016,03,08,07,44,14.50
2016,03,08,07,45,12.90
2016,03,08,07,46,14.50
2016,03,08,07,47,16.10
2016,03,08,07,48,12.90
2016,03,08,07,49,14.50
2016,03,08,07,50,12.90
2016,03,08,07,51,17.70
2016,03,08,07,52,19.30
2016,03,08,07,53,16.10
2016,03,08,07,54,14.50
2016,03,08,07,55,12.90
2016,03,08,07,56,14.50
2016,03,08,07,57,22.50
2016,03,08,07,58,12.90
2016,03,08,07,59,11.30
2016,03,08,08,00,17.70
2016,03,08,08,01,20.90
2016,03,08,08,02,16.10
2016,03,08,08,03,11.30
2016,03,08,08,04,14.50
2016,03,08,08,05,14.50
2016,03,08,08,06,22.50
2016,03,08,08,07,8.10
2016,03,08,08,08,19.30
2016,03,08,08,09,16.10
2016,03,08,08,10,20.90
2016,03,08,08,11,12.90
2016,03,08,08,12,24.20
2016,03,08,08,13,17.70
2016,03,08,08,14,16.10
2016,03,08,08,15,12.90
2016,03,08,08,16,14.50
2016,03,08,08,17,16.10
2016,03,08,08,18,11.30
2016,03,08,08,19,17.70
2016,03,08,08,20,29.00
2016,03,08,08,21,9.60
2016,03,08,08,22,17.70
2016,03,08,08,23,16.10
2016,03,08,08,24,16.10
2016,03,08,08,25,27.40
2016,03,08,08,26,20.90
2016,03,08,08,27,30.60
2016,03,08,08,28,27.40
2016,03,08,08,29,11.30
2016,03,08,08,30,19.30
2016,03,08,08,31,11.30
2016,03,08,08,32,24.20
2016,03,08,08,33,16.10
2016,03,08,08,34,14.50
2016,03,08,08,35,25.70
2016,03,08,08,36,24.20
2016,03,08,08,37,22.50
2016,03,08,08,38,20.90
2016,03,08,08,39,14.50
2016,03,08,08,40,16.10
2016,03,08,08,41,14.50
2016,03,08,08,42,16.10
2016,03,08,08,43,12.90
2016,03,08,08,44,25.70
2016,03,08,08,45,32.20
2016,03,08,08,46,19.30
2016,03,08,08,47,20.90
2016,03,08,08,48,17.70
2016,03,08,08,49,17.70
2016,03,08,08,50,14.50
2016,03,08,08,51,12.90
2016,03,08,08,52,11.30
2016,03,08,08,53,14.50
2016,03,08,08,54,20.90
2016,03,08,08,55,20.90
2016,03,08,08,56,17.70
2016,03,08,08,57,17.70
2016,03,08,08,58,16.10
2016,03,08,08,59,19.30
2016,03,08,09,00,12.90
2016,03,08,09,01,25.70
2016,03,08,09,02,16.10
2016,03,08,09,03,24.20
2016,03,08,09,04,20.90
2016,03,08,09,05,16.10
2016,03,08,09,06,27.40
2016,03,08,09,07,16.10
2016,03,08,09,08,20.90
2016,03,08,09,09,27.40
2016,03,08,09,10,30.60
2016,03,08,09,11,19.30
2016,03,08,09,12,17.70
2016,03,08,09,13,22.50
2016,03,08,09,14,11.30
2016,03,08,09,15,14.50
2016,03,08,09,16,22.50
2016,03,08,09,17,17.70
2016,03,08,09,18,12.90
2016,03,08,09,19,12.90
2016,03,08,09,20,20.90
2016,03,08,09,21,33.80
2016,03,08,09,22,20.90
2016,03,08,09,23,19.30
2016,03,08,09,24,25.70
2016,03,08,09,25,22.50
2016,03,08,09,26,20.90
2016,03,08,09,27,14.50
2016,03,08,09,28,24.20
2016,03,08,09,29,22.50
2016,03,08,09,30,33.80
2016,03,08,09,31,22.50
2016,03,08,09,32,22.50
2016,03,08,09,33,14.50
2016,03,08,09,34,24.20
2016,03,08,09,35,27.40
2016,03,08,09,36,14.50
2016,03,08,09,37,19.30
2016,03,08,09,38,27.40
2016,03,08,09,39,25.70
2016,03,08,09,40,19.30
2016,03,08,09,41,22.50
2016,03,08,09,42,19.30
2016,03,08,09,43,29.00
2016,03,08,09,44,24.20
2016,03,08,09,45,22.50
2016,03,08,09,46,17.70
2016,03,08,09,47,19.30
2016,03,08,09,48,19.30
2016,03,08,09,49,24.20
2016,03,08,09,50,20.90
2016,03,08,09,51,22.50
2016,03,08,09,52,17.70
2016,03,08,09,53,25.70
2016,03,08,09,54,24.20
2016,03,08,09,55,17.70
2016,03,08,09,56,24.20
2016,03,08,09,57,17.70
2016,03,08,09,58,25.70
2016,03,08,09,59,29.00
2016,03,08,10,00,22.50
2016,03,08,10,01,24.20
2016,03,08,10,02,19.30
2016,03,08,10,03,14.50
2016,03,08,10,04,30.60
2016,03,08,10,05,27.40
2016,03,08,10,06,9.60
2016,03,08,10,07,14.50
2016,03,08,10,08,22.50
2016,03,08,10,09,11.30
2016,03,08,10,10,11.30
2016,03,08,10,11,24.20
2016,03,08,10,12,29.00
2016,03,08,10,13,19.30
2016,03,08,10,14,17.70
2016,03,08,10,15,17.70
2016,03,08,10,16,24.20
2016,03,08,10,17,25.70
2016,03,08,10,18,25.70
2016,03,08,10,19,16.10
2016,03,08,10,20,16.10
2016,03,08,10,21,22.50
2016,03,08,10,22,11.30
2016,03,08,10,23,22.50
2016,03,08,10,24,19.30
2016,03,08,10,25,19.30
2016,03,08,10,26,27.40
2016,03,08,10,27,11.30
2016,03,08,10,28,11.30
2016,03,08,10,29,19.30
2016,03,08,10,30,30.60
2016,03,08,10,31,16.10
2016,03,08,10,32,19.30
2016,03,08,10,33,20.90
2016,03,08,10,34,17.70
2016,03,08,10,35,17.70
2016,03,08,10,36,29.00
2016,03,08,10,37,20.90
2016,03,08,10,38,20.90
2016,03,08,10,39,22.50
2016,03,08,10,40,17.70
2016,03,08,10,41,11.30
2016,03,08,10,42,22.50
2016,03,08,10,43,17.70
2016,03,08,10,44,24.20
2016,03,08,10,45,16.10
2016,03,08,10,46,6.40
2016,03,08,10,47,8.10
2016,03,08,10,48,17.70
2016,03,08,10,49,20.90
2016,03,08,10,50,11.30
2016,03,08,10,51,14.50
2016,03,08,10,52,20.90
2016,03,08,10,53,19.30
2016,03,08,10,54,19.30
2016,03,08,10,55,27.40
2016,03,08,10,56,27.40
2016,03,08,10,57,22.50
2016,03,08,10,58,35.40
2016,03,08,10,59,25.70
2016,03,08,11,00,27.40
2016,03,08,11,01,12.90
2016,03,08,11,02,11.30
2016,03,08,11,03,14.50
2016,03,08,11,04,12.90
2016,03,08,11,05,14.50
2016,03,08,11,06,8.10
2016,03,08,11,07,16.10
2016,03,08,11,08,16.10
2016,03,08,11,09,19.30
2016,03,08,11,10,24.20
2016,03,08,11,11,25.70
2016,03,08,11,12,19.30
2016,03,08,11,13,25.70
2016,03,08,11,14,17.70
2016,03,08,11,15,16.10
2016,03,08,11,16,16.10
2016,03,08,11,17,22.50
2016,03,08,11,18,27.40
2016,03,08,11,19,8.10
2016,03,08,11,20,20.90
2016,03,08,11,21,19.30
2016,03,08,11,22,17.70
2016,03,08,11,23,22.50
2016,03,08,11,24,33.80
2016,03,08,11,25,19.30
2016,03,08,11,26,24.20
2016,03,08,11,27,27.40
2016,03,08,11,28,20.90
2016,03,08,11,29,19.30
2016,03,08,11,30,14.50
2016,03,08,11,31,17.70
2016,03,08,11,32,24.20
2016,03,08,11,33,29.00
2016,03,08,11,34,20.90
2016,03,08,11,35,12.90
2016,03,08,11,36,17.70
2016,03,08,11,37,22.50
2016,03,08,11,38,25.70
2016,03,08,11,39,24.20
2016,03,08,11,40,22.50
2016,03,08,11,41,25.70
2016,03,08,11,42,17.70
2016,03,08,11,43,20.90
2016,03,08,11,44,14.50
2016,03,08,11,45,16.10
2016,03,08,11,46,32.20
2016,03,08,11,47,25.70
2016,03,08,11,48,22.50
2016,03,08,11,49,17.70
2016,03,08,11,50,20.90
2016,03,08,11,51,27.40
2016,03,08,11,52,22.50
2016,03,08,11,53,37.00
2016,03,08,11,54,30.60
2016,03,08,11,55,12.90
2016,03,08,11,56,24.20
2016,03,08,11,57,30.60
2016,03,08,11,58,14.50
2016,03,08,11,59,24.20
2016,03,08,12,00,24.20
2016,03,08,12,01,20.90
2016,03,08,12,02,25.70
2016,03,08,12,03,17.70
2016,03,08,12,04,16.10
2016,03,08,12,05,20.90
2016,03,08,12,06,22.50
2016,03,08,12,07,16.10
2016,03,08,12,08,24.20
2016,03,08,12,09,16.10
2016,03,08,12,10,22.50
2016,03,08,12,11,24.20
2016,03,08,12,12,29.00
2016,03,08,12,13,25.70
2016,03,08,12,14,24.20
2016,03,08,12,15,14.50
2016,03,08,12,16,19.30
2016,03,08,12,17,12.90
2016,03,08,12,18,19.30
2016,03,08,12,19,30.60
2016,03,08,12,20,24.20
2016,03,08,12,21,16.10
2016,03,08,12,22,29.00
2016,03,08,12,23,25.70
2016,03,08,12,24,27.40
2016,03,08,12,25,20.90
2016,03,08,12,26,22.50
2016,03,08,12,27,16.10
2016,03,08,12,28,30.60
2016,03,08,12,29,19.30
2016,03,08,12,30,20.90
2016,03,08,12,31,19.30
2016,03,08,12,32,14.50
2016,03,08,12,33,20.90
2016,03,08,12,34,14.50
2016,03,08,12,35,25.70
2016,03,08,12,36,24.20
2016,03,08,12,37,19.30
2016,03,08,12,38,25.70
2016,03,08,12,39,6.40
2016,03,08,12,40,12.90
2016,03,08,12,41,22.50
2016,03,08,12,42,20.90
2016,03,08,12,43,22.50
2016,03,08,12,44,9.60
2016,03,08,12,45,19.30
2016,03,08,12,46,14.50
2016,03,08,12,47,20.90
2016,03,08,12,48,14.50
2016,03,08,12,49,24.20
2016,03,08,12,50,19.30
2016,03,08,12,51,16.10
2016,03,08,12,52,9.60
2016,03,08,12,53,19.30
2016,03,08,12,54,16.10
2016,03,08,12,55,19.30
2016,03,08,12,56,19.30
2016,03,08,12,57,12.90
2016,03,08,12,58,19.30
2016,03,08,12,59,16.10
2016,03,08,13,00,16.10
2016,03,08,13,01,14.50
2016,03,08,13,02,20.90
2016,03,08,13,03,24.20
2016,03,08,13,04,17.70
2016,03,08,13,05,19.30
2016,03,08,13,06,17.70
2016,03,08,13,07,17.70
2016,03,08,13,08,22.50
2016,03,08,13,09,16.10
2016,03,08,13,10,24.20
2016,03,08,13,11,9.60
2016,03,08,13,12,14.50
2016,03,08,13,13,33.80
2016,03,08,13,14,30.60
2016,03,08,13,15,16.10
2016,03,08,13,16,6.40
2016,03,08,13,17,14.50
2016,03,08,13,18,20.90
2016,03,08,13,19,19.30
2016,03,08,13,20,12.90
2016,03,08,13,21,14.50
2016,03,08,13,22,25.70
2016,03,08,13,23,16.10
2016,03,08,13,24,14.50
2016,03,08,13,25,11.30
2016,03,08,13,26,11.30
2016,03,08,13,27,19.30
2016,03,08,13,28,29.00
2016,03,08,13,29,17.70
2016,03,08,13,30,16.10
2016,03,08,13,31,24.20
2016,03,08,13,32,14.50
2016,03,08,13,33,14.50
2016,03,08,13,34,17.70
2016,03,08,13,35,16.10
2016,03,08,13,36,16.10
2016,03,08,13,37,17.70
2016,03,08,13,38,17.70
2016,03,08,13,39,17.70
2016,03,08,13,40,20.90
2016,03,08,13,41,22.50
2016,03,08,13,42,22.50
2016,03,08,13,43,29.00
2016,03,08,13,44,20.90
2016,03,08,13,45,16.10
2016,03,08,13,46,14.50
2016,03,08,13,47,19.30
2016,03,08,13,48,20.90
2016,03,08,13,49,20.90
2016,03,08,13,50,11.30
2016,03,08,13,51,17.70
2016,03,08,13,52,19.30
2016,03,08,13,53,24.20
2016,03,08,13,54,22.50
2016,03,08,13,55,12.90
2016,03,08,13,56,16.10
2016,03,08,13,57,19.30
2016,03,08,13,58,19.30
2016,03,08,13,59,19.30
2016,03,08,14,00,12.90
2016,03,08,14,01,16.10
2016,03,08,14,02,17.70
2016,03,08,14,03,14.50
2016,03,08,14,04,9.60
2016,03,08,14,05,11.30
2016,03,08,14,06,17.70
2016,03,08,14,07,17.70
2016,03,08,14,08,6.40
2016,03,08,14,09,11.30
2016,03,08,14,10,11.30
2016,03,08,14,11,8.10
2016,03,08,14,12,12.90
2016,03,08,14,13,11.30
2016,03,08,14,14,17.70
2016,03,08,14,15,12.90
2016,03,08,14,16,14.50
2016,03,08,14,17,17.70
2016,03,08,14,18,16.10
2016,03,08,14,19,11.30
2016,03,08,14,20,22.50
2016,03,08,14,21,25.70
2016,03,08,14,22,16.10
2016,03,08,14,23,11.30
2016,03,08,14,24,17.70
2016,03,08,14,25,11.30
2016,03,08,14,26,16.10
2016,03,08,14,27,14.50
2016,03,08,14,28,19.30
2016,03,08,14,29,16.10
2016,03,08,14,30,20.90
2016,03,08,14,31,20.90
2016,03,08,14,32,12.90
2016,03,08,14,33,20.90
2016,03,08,14,34,16.10
2016,03,08,14,35,22.50
2016,03,08,14,36,14.50
2016,03,08,14,37,17.70
2016,03,08,14,38,24.20
2016,03,08,14,39,17.70
2016,03,08,14,40,9.60
2016,03,08,14,41,9.60
2016,03,08,14,42,11.30
2016,03,08,14,43,12.90
2016,03,08,14,44,12.90
2016,03,08,14,45,16.10
2016,03,08,14,46,17.70
2016,03,08,14,47,8.10
2016,03,08,14,48,11.30
2016,03,08,14,49,11.30
2016,03,08,14,50,8.10
2016,03,08,14,51,16.10
2016,03,08,14,52,16.10
2016,03,08,14,53,19.30
2016,03,08,14,54,16.10
2016,03,08,14,55,9.60
2016,03,08,14,56,16.10
2016,03,08,14,57,19.30
2016,03,08,14,58,8.10
2016,03,08,14,59,20.90
2016,03,08,15,00,16.10
2016,03,08,15,01,9.60
2016,03,08,15,02,8.10
2016,03,08,15,03,17.70
2016,03,08,15,04,11.30
2016,03,08,15,05,24.20
2016,03,08,15,06,11.30
2016,03,08,15,07,17.70
2016,03,08,15,08,12.90
2016,03,08,15,09,17.70
2016,03,08,15,10,14.50
2016,03,08,15,11,14.50
2016,03,08,15,12,11.30
2016,03,08,15,13,14.50
2016,03,08,15,14,12.90
2016,03,08,15,15,17.70
2016,03,08,15,16,19.30
2016,03,08,15,17,11.30
2016,03,08,15,18,9.60
2016,03,08,15,19,19.30
2016,03,08,15,20,12.90
2016,03,08,15,21,11.30
2016,03,08,15,22,19.30
2016,03,08,15,23,20.90
2016,03,08,15,24,16.10
2016,03,08,15,25,12.90
2016,03,08,15,26,12.90
2016,03,08,15,27,29.00
2016,03,08,15,28,17.70
2016,03,08,15,29,22.50
2016,03,08,15,30,24.20
2016,03,08,15,31,20.90
2016,03,08,15,32,29.00
2016,03,08,15,33,24.20
2016,03,08,15,34,25.70
2016,03,08,15,35,22.50
2016,03,08,15,36,19.30
2016,03,08,15,37,25.70
2016,03,08,15,38,16.10
2016,03,08,15,39,14.50
2016,03,08,15,40,16.10
2016,03,08,15,41,16.10
2016,03,08,15,42,17.70
2016,03,08,15,43,14.50
2016,03,08,15,44,11.30
2016,03,08,15,45,11.30
2016,03,08,15,46,11.30
2016,03,08,15,47,17.70
2016,03,08,15,48,19.30
2016,03,08,15,49,17.70
2016,03,08,15,50,17.70
2016,03,08,15,51,25.70
2016,03,08,15,52,16.10
2016,03,08,15,53,20.90
2016,03,08,15,54,16.10
2016,03,08,15,55,17.70
2016,03,08,15,56,22.50
2016,03,08,15,57,19.30
2016,03,08,15,58,25.70
2016,03,08,15,59,11.30
2016,03,08,16,00,14.50
2016,03,08,16,01,11.30
2016,03,08,16,02,12.90
2016,03,08,16,03,17.70
2016,03,08,16,04,17.70
2016,03,08,16,05,25.70
2016,03,08,16,06,17.70
2016,03,08,16,07,14.50
2016,03,08,16,08,19.30
2016,03,08,16,09,17.70
2016,03,08,16,10,11.30
2016,03,08,16,11,12.90
2016,03,08,16,12,22.50
2016,03,08,16,13,20.90
2016,03,08,16,14,22.50
2016,03,08,16,15,19.30
2016,03,08,16,16,12.90
2016,03,08,16,17,14.50
2016,03,08,16,18,29.00
2016,03,08,16,19,25.70
2016,03,08,16,20,12.90
2016,03,08,16,21,24.20
2016,03,08,16,22,12.90
2016,03,08,16,23,17.70
2016,03,08,16,24,22.50
2016,03,08,16,25,22.50
2016,03,08,16,26,19.30
2016,03,08,16,27,19.30
2016,03,08,16,28,17.70
2016,03,08,16,29,30.60
2016,03,08,16,30,19.30
2016,03,08,16,31,24.20
2016,03,08,16,32,20.90
2016,03,08,16,33,24.20
2016,03,08,16,34,27.40
2016,03,08,16,35,16.10
2016,03,08,16,36,20.90
2016,03,08,16,37,19.30
2016,03,08,16,38,11.30
2016,03,08,16,39,24.20
2016,03,08,16,40,17.70
2016,03,08,16,41,17.70
2016,03,08,16,42,17.70
2016,03,08,16,43,12.90
2016,03,08,16,44,14.50
2016,03,08,16,45,17.70
2016,03,08,16,46,20.90
2016,03,08,16,47,22.50
2016,03,08,16,48,14.50
2016,03,08,16,49,9.60
2016,03,08,16,50,14.50
2016,03,08,16,51,19.30
2016,03,08,16,52,19.30
2016,03,08,16,53,19.30
2016,03,08,16,54,17.70
2016,03,08,16,55,14.50
2016,03,08,16,56,22.50
2016,03,08,16,57,19.30
2016,03,08,16,58,24.20
2016,03,08,16,59,17.70
2016,03,08,17,00,16.10
2016,03,08,17,01,12.90
2016,03,08,17,02,19.30
2016,03,08,17,03,19.30
2016,03,08,17,04,17.70
2016,03,08,17,05,11.30
2016,03,08,17,06,16.10
2016,03,08,17,07,17.70
2016,03,08,17,08,16.10
2016,03,08,17,09,16.10
2016,03,08,17,10,12.90
2016,03,08,17,11,16.10
2016,03,08,17,12,17.70
2016,03,08,17,13,11.30
2016,03,08,17,14,16.10
2016,03,08,17,15,24.20
2016,03,08,17,16,19.30
2016,03,08,17,17,11.30
2016,03,08,17,18,19.30
2016,03,08,17,19,16.10
2016,03,08,17,20,20.90
2016,03,08,17,21,19.30
2016,03,08,17,22,20.90
2016,03,08,17,23,17.70
2016,03,08,17,24,19.30
2016,03,08,17,25,16.10
2016,03,08,17,26,14.50
2016,03,08,17,27,16.10
2016,03,08,17,28,16.10
2016,03,08,17,29,14.50
2016,03,08,17,30,12.90
2016,03,08,17,31,19.30
2016,03,08,17,32,19.30
2016,03,08,17,33,9.60
2016,03,08,17,34,17.70
2016,03,08,17,35,17.70
2016,03,08,17,36,14.50
2016,03,08,17,37,17.70
2016,03,08,17,38,19.30
2016,03,08,17,39,16.10
2016,03,08,17,40,16.10
2016,03,08,17,41,12.90
2016,03,08,17,42,17.70
2016,03,08,17,43,17.70
2016,03,08,17,44,12.90
2016,03,08,17,45,19.30
2016,03,08,17,46,19.30
2016,03,08,17,47,11.30
2016,03,08,17,48,11.30
2016,03,08,17,49,16.10
2016,03,08,17,50,14.50
2016,03,08,17,51,19.30
2016,03,08,17,52,16.10
2016,03,08,17,53,17.70
2016,03,08,17,54,16.10
2016,03,08,17,55,22.50
2016,03,08,17,56,16.10
2016,03,08,17,57,17.70
2016,03,08,17,58,17.70
2016,03,08,17,59,11.30
2016,03,08,18,00,12.90
2016,03,08,18,01,16.10
2016,03,08,18,02,27.40
2016,03,08,18,03,17.70
2016,03,08,18,04,14.50
2016,03,08,18,05,14.50
2016,03,08,18,06,27.40
2016,03,08,18,07,20.90
2016,03,08,18,08,16.10
2016,03,08,18,09,20.90
2016,03,08,18,10,17.70
2016,03,08,18,11,16.10
2016,03,08,18,12,11.30
2016,03,08,18,13,16.10
2016,03,08,18,14,12.90
2016,03,08,18,15,27.40
2016,03,08,18,16,16.10
2016,03,08,18,17,19.30
2016,03,08,18,18,19.30
2016,03,08,18,19,14.50
2016,03,08,18,20,19.30
2016,03,08,18,21,30.60
2016,03,08,18,22,17.70
2016,03,08,18,23,20.90
2016,03,08,18,24,22.50
2016,03,08,18,25,17.70
2016,03,08,18,26,17.70
2016,03,08,18,27,17.70
2016,03,08,18,28,19.30
2016,03,08,18,29,12.90
2016,03,08,18,30,9.60
2016,03,08,18,31,17.70
2016,03,08,18,32,17.70
2016,03,08,18,33,16.10
2016,03,08,18,34,20.90
2016,03,08,18,35,20.90
2016,03,08,18,36,22.50
2016,03,08,18,37,11.30
2016,03,08,18,38,20.90
2016,03,08,18,39,14.50
2016,03,08,18,40,19.30
2016,03,08,18,41,17.70
2016,03,08,18,42,14.50
2016,03,08,18,43,12.90
2016,03,08,18,44,11.30
2016,03,08,18,45,14.50
2016,03,08,18,46,20.90
2016,03,08,18,47,9.60
2016,03,08,18,48,19.30
2016,03,08,18,49,19.30
2016,03,08,18,50,20.90
2016,03,08,18,51,22.50
2016,03,08,18,52,24.20
2016,03,08,18,53,25.70
2016,03,08,18,54,24.20
2016,03,08,18,55,17.70
2016,03,08,18,56,9.60
2016,03,08,18,57,16.10
2016,03,08,18,58,20.90
2016,03,08,18,59,20.90
2016,03,08,19,00,9.60
2016,03,08,19,01,12.90
2016,03,08,19,02,4.80
2016,03,08,19,03,4.80
2016,03,08,19,04,16.10
2016,03,08,19,05,16.10
2016,03,08,19,06,14.50
2016,03,08,19,07,16.10
2016,03,08,19,08,16.10
2016,03,08,19,09,14.50
2016,03,08,19,10,17.70
2016,03,08,19,11,16.10
2016,03,08,19,12,14.50
2016,03,08,19,13,16.10
2016,03,08,19,14,6.40